Terminal Aerodrome Forecast
Issued by NWS Lake Charles, LA

Home | Current Version | Previous Version | Text Only | Print | Product List | Glossary On
Versions: 1 2 3 4 5 6 7 8 9 10 11 12 13 14 15
000
FTUS44 KLCH 300520
TAFARA
TAF
KARA 300520Z 3006/3106 VRB03KT P6SM VCTS SCT035CB BKN070
     FM300900 34003KT P6SM SCT050
     FM301500 34008KT P6SM FEW030
     FM302000 VRB06KT P6SM VCTS SCT050CB
     FM310000 32004KT P6SM SCT050=

USA.gov is the U.S. government's official web portal to all federal, state and local government web resources and services.